OBJECT BB, 67297

Orbit data source: Space-Track

You're viewing an Uncataloged Satellite

Recently launched and/or uncataloged satellites may have evolving metadata. Metadata may include but not limited to: Owner, Maufacturer, Bus, Motor, and Mission.

OBJECT BB, 67297 is a satellite in SSO that was launched on Sun, 28 Dec 2025 UTC via a SOYUZ-2-1B launch vehicle from the Vostochny Cosmodrome (VOSTO). Unknown objects in Earth's orbit typically refer to objects detected orbiting the Earth but have not yet been identified or cataloged. These objects could be anything from previously untracked satellites, spent rocket stages, debris from satellite collisions, or even natural meteoroids temporarily captured by Earth's gravity.

Loading next visibility...
Identifier
67297, 2025-313BB
Orbit
SSO
Country
Flag of TBDTBD
Related business
Manufacturer
Sputniks
Mission
Operational Commercial Communications
Bus & Motor
CUBESAT 3U, Unknown motor
Mass
3 kg wet, 3 kg dry
Launch date (UTC)
2025-12-28 (6 months ago)
Launch vehicle
SOYUZ-2-1B
Launch site
Vostochny Cosmodrome (VOSTO)
Object type
Unknown
Shape & HBR
Box, 0.1 m
Radar Cross Section
0.035 m², Medium (>0.1 m² and < 1m²)

Expand to show TLE details & history
Last TLE update: 9 hours ago

TLE from 9 hours ago
0 OBJECT BB
1 67297U 25313BB  26171.47180413  .00008305  00000-0  33223-3 0  9992
2 67297  97.3945 246.5753 0007717 357.4621   2.6576 15.25315250 26487
Epoch: 2026-06-20T11:19Z
TLE epoch observation values (Epoch: 2026-06-20T11:19:23.876Z)
Latitude
-0.0001°
Longitude
168.03989°
Altitude
487.641 km
Speed
7.624 km/s
True Right ascension
16h 26m 18s
True Declination
0° 00' 00"
Sunlit
Object was in full shadow at epoch
Visualization orbit readout
Latitude
Unknown
Longitude
Unknown
Altitude
Unknown
Speed
Unknown
Apparent Right ascension
Unknown
Apparent Declination
Unknown
Sunlit
N/A
Visualization observer readout
Local Sidereal Time
07:23:58
Azimuth
Unknown
Elevation
Unknown
Doppler factor
Unknown
Orbital elements
Apogee altitude
492.095 km
Perigee altitude
481.5 km
Semi-major axis
6,864.934 km
Eccentricity
0.00077
Inclination
97.3945°
RAAN
246.5753°
Arg. of periapsis
357.4621°
True anomaly
2.6617°
Mean anomaly
2.6576°
Eccentric anomaly
2.65965°
Mean motion
3.81583 °/min
Orbital period
94.34 mins
BSTAR
0.00033223
Loading maneuver chart data...
Computing Atmospheric mass density...
Loading historical data...
Loading historical data...
Loading historical data...
Loading historical data...
Loading historical data...
Loading historical data...
Loading historical data...

Documentation

Showing up to 5 results
|